New Philadelphia, OH

6:20 AM EDT on March 26, 2017 (GMT -0400)
Clever

Weather History for KPHD - September, 2011

Change the Weather History Date:

Monday, September 19, 2011

  Actual Average Record
Temperature  
Mean Temperature 60 °F 63 °F  
Max Temperature 64 °F 75 °F 89 °F (1965)
Min Temperature 55 °F 51 °F 38 °F (1990)
Degree Days  
Heating Degree Days 6 4  
Month to date heating degree days 35  
Since 1 July heating degree days 45  
Cooling Degree Days 0 2  
Month to date cooling degree days 55  
Year to date cooling degree days 677  
Growing Degree Days 10 (Base 50)    
Moisture  
Dew Point 56 °F    
Average Humidity 85    
Maximum Humidity 94    
Minimum Humidity 75    
Precipitation  
Precipitation 0.37 in 0.10 in 1.78 in (2003)
Month to date precipitation 2.28  
Year to date precipitation 29.23  
Sea Level Pressure  
Sea Level Pressure 30.06 in    
Wind  
Wind Speed 5 mph (South)    
Max Wind Speed 9 mph    
Max Gust Speed -    
Visibility 8 miles    
Events Rain    
T = Trace of Precipitation, MM = Missing Value Source: NWS Daily Summary

Daily Weather History Graph

Daily Weather History Graph

Search for Another Location

Airport or City:

Trip Planner

Search our weather history database for the weather conditions in past years. The results will help you decide how hot, cold, wet, or windy it might be!

Date:

Astronomy

Sep. 19, 2011 Rise Set
Actual Time 7:10 AM EDT 7:28 PM EDT
Civil Twilight 6:42 AM EDT 7:55 PM EDT
Nautical Twilight 6:10 AM EDT 8:27 PM EDT
Astronomical Twilight 5:37 AM EDT 9:00 PM EDT
Moon 11:32 PM EDT (9/19) 2:00 PM EDT (9/19)
Length of Visible Light 13h 12m
Length of Day
12h 18m
Waning Gibbous, 59% of the Moon is Illuminated
Sep 19
Waning Gibbous
Sep 20
Last Quarter
Sep 27
New
Oct 3
First Quarter
Oct 11
Full

Hourly Weather History & Observations

Time (EDT) Temp. Dew Point Humidity Pressure Visibility Wind Dir Wind Speed Gust Speed Precip Events Conditions
1:53 AM 57.0 °F 50.0 °F 77% 30.18 in 10.0 mi SSE 6.9 mph - N/A   Overcast
2:53 AM 57.0 °F 50.0 °F 77% 30.15 in 10.0 mi SSE 5.8 mph - N/A   Overcast
5:53 AM 55.0 °F 50.0 °F 83% 30.12 in 10.0 mi SSE 5.8 mph - N/A   Clear
6:53 AM 55.9 °F 51.1 °F 84% 30.14 in 6.0 mi Calm Calm - 0.01 in Rain Light Rain
7:53 AM 55.9 °F 52.0 °F 87% 30.14 in 10.0 mi SSE 3.5 mph - 0.00 in   Overcast
8:53 AM 55.9 °F 52.0 °F 87% 30.15 in 10.0 mi South 4.6 mph - 0.01 in Rain Light Rain
9:53 AM 57.0 °F 52.0 °F 83% 30.12 in 10.0 mi Variable 4.6 mph - 0.00 in   Mostly Cloudy
10:53 AM 61.0 °F 54.0 °F 78% 30.12 in 10.0 mi South 9.2 mph - N/A   Mostly Cloudy
11:53 AM 62.1 °F 54.0 °F 75% 30.10 in 10.0 mi Variable 4.6 mph - N/A   Mostly Cloudy
12:53 PM 63.0 °F 55.9 °F 78% 30.09 in 10.0 mi SSW 5.8 mph - N/A   Overcast
1:53 PM 64.0 °F 55.9 °F 75% 30.07 in 10.0 mi SSW 9.2 mph - 0.00 in   Unknown
2:53 PM 64.0 °F 57.0 °F 78% 30.04 in 10.0 mi South 8.1 mph - N/A   Overcast
3:04 PM 64.4 °F 57.2 °F 77% 30.04 in 10.0 mi South 6.9 mph - N/A   Overcast
3:53 PM 63.0 °F 57.0 °F 81% 30.03 in 10.0 mi Variable 5.8 mph - 0.00 in Rain Light Rain
4:42 PM 62.6 °F 57.2 °F 82% 30.03 in 1.8 mi South 5.8 mph - 0.08 in Rain Heavy Rain
4:53 PM 61.0 °F 57.9 °F 90% 30.02 in 2.0 mi SSE 4.6 mph - 0.13 in Rain Heavy Rain
5:05 PM 62.6 °F 59.0 °F 88% 30.02 in 4.0 mi SSE 4.6 mph - 0.01 in Rain Light Rain
5:50 PM 62.6 °F 59.0 °F 88% 30.01 in 4.0 mi South 5.8 mph - 0.06 in Rain Light Rain
5:53 PM 62.1 °F 59.0 °F 90% 30.01 in 4.0 mi South 5.8 mph - 0.06 in Rain Light Rain
6:30 PM 62.6 °F 59.0 °F 88% 30.01 in 4.0 mi South 4.6 mph - 0.03 in Rain Light Rain
6:53 PM 62.1 °F 59.0 °F 90% 30.01 in 3.0 mi Variable 3.5 mph - 0.05 in Rain Light Rain
7:53 PM 61.0 °F 59.0 °F 93% 30.01 in 5.0 mi Calm Calm - 0.06 in Rain Light Rain
8:53 PM 61.0 °F 59.0 °F 93% 30.02 in 6.0 mi South 3.5 mph - 0.03 in Rain Light Rain
9:53 PM 61.0 °F 57.9 °F 90% 30.02 in 9.0 mi South 3.5 mph - 0.01 in Rain Light Rain
10:24 PM 60.8 °F 59.0 °F 94% 30.02 in - North - - 0.01 in   Unknown
10:53 PM 62.1 °F 59.0 °F 90% 30.03 in 10.0 mi Calm Calm - 0.01 in   Unknown
11:14 PM 62.6 °F 59.0 °F 88% 30.03 in 4.0 mi SW 3.5 mph - N/A   Overcast
11:53 PM 62.1 °F 59.0 °F 90% 30.03 in 10.0 mi SW 4.6 mph - N/A   Overcast